SHU719 UHWW-UHHH

Flight info

Callsign SHU719
Flight time 1h 1m
Altitude 35000
Route DOLMA2F DOLMA B356 TD B355 ARDEL ARDEL6D
Aircraft A319/M-SDE3FGHIRWY/LB1

Departure

Time 2026-04-22 08:22
Airport Vladivostok International Airport (UHWW)

Arrival

Time 2026-04-22 09:23
Airport Khabarovsk Novy Airport (UHHH)
Time Latitude Longitude Altitude Speed Heading
2026-04-22 08:00 43.39822 132.16731 48 ft 0 kts 151°
2026-04-22 08:11 43.39824 132.16730 48 ft 2 kts 151°
2026-04-22 08:11 43.39837 132.16719 48 ft 2 kts 151°
2026-04-22 08:11 43.39851 132.16710 48 ft 2 kts 151°
2026-04-22 08:12 43.39864 132.16699 48 ft 2 kts 151°
2026-04-22 08:12 43.39877 132.16689 47 ft 2 kts 150°
2026-04-22 08:12 43.39890 132.16679 47 ft 2 kts 150°
2026-04-22 08:12 43.39904 132.16673 47 ft 2 kts 181°
2026-04-22 08:13 43.39919 132.16678 46 ft 2 kts 206°
2026-04-22 08:13 43.39931 132.16690 46 ft 2 kts 231°
2026-04-22 08:13 43.39935 132.16698 46 ft 1 kts 244°
2026-04-22 08:13 43.39937 132.16702 46 ft 0 kts 240°
2026-04-22 08:16 43.39932 132.16692 46 ft 3 kts 240°
2026-04-22 08:16 43.39913 132.16649 47 ft 6 kts 239°
2026-04-22 08:16 43.39889 132.16591 48 ft 7 kts 240°
2026-04-22 08:17 43.39862 132.16524 50 ft 8 kts 241°
2026-04-22 08:17 43.39831 132.16449 52 ft 9 kts 238°
2026-04-22 08:17 43.39797 132.16370 55 ft 9 kts 240°
2026-04-22 08:17 43.39763 132.16286 58 ft 10 kts 241°
2026-04-22 08:18 43.39782 132.16190 59 ft 13 kts 331°
2026-04-22 08:18 43.39882 132.16110 57 ft 18 kts 317°
2026-04-22 08:18 43.39856 132.15962 58 ft 17 kts 240°
2026-04-22 08:18 43.39804 132.15830 62 ft 14 kts 240°
2026-04-22 08:19 43.39755 132.15709 63 ft 14 kts 241°
2026-04-22 08:19 43.39706 132.15588 63 ft 14 kts 242°
2026-04-22 08:19 43.39658 132.15471 64 ft 14 kts 239°
2026-04-22 08:19 43.39344 132.14693 55 ft 15 kts 241°
2026-04-22 08:20 43.38789 132.13318 28 ft 17 kts 244°
2026-04-22 08:20 43.38776 132.13171 28 ft 13 kts 330°
2026-04-22 08:20 43.38848 132.13161 28 ft 10 kts 319°
2026-04-22 08:20 43.38906 132.13095 28 ft 11 kts 322°
2026-04-22 08:21 43.38959 132.13123 28 ft 10 kts 69°
2026-04-22 08:21 43.38993 132.13222 28 ft 13 kts 60°
2026-04-22 08:21 43.39151 132.13612 29 ft 83 kts 61°
2026-04-22 08:21 43.39534 132.14563 48 ft 144 kts 59°
2026-04-22 08:22 43.40064 132.15855 452 ft 160 kts 56°
2026-04-22 08:22 43.40606 132.17200 1126 ft 163 kts 54°
2026-04-22 08:22 43.41150 132.18545 1794 ft 164 kts 53°
2026-04-22 08:22 43.41703 132.19902 2445 ft 166 kts 53°
2026-04-22 08:23 43.42260 132.21269 3090 ft 168 kts 53°
2026-04-22 08:23 43.42842 132.22699 3613 ft 179 kts 53°
2026-04-22 08:23 43.43476 132.24246 4060 ft 195 kts 53°
2026-04-22 08:23 43.44173 132.25958 4533 ft 213 kts 54°
2026-04-22 08:24 43.44913 132.27786 4991 ft 230 kts 54°
2026-04-22 08:24 43.45731 132.29813 5395 ft 253 kts 55°
2026-04-22 08:24 43.46614 132.32011 5933 ft 271 kts 56°
2026-04-22 08:24 43.47532 132.34306 6679 ft 281 kts 56°
2026-04-22 08:25 43.48508 132.36632 7560 ft 281 kts 49°
2026-04-22 08:25 43.49822 132.38528 8389 ft 277 kts 31°
2026-04-22 08:25 43.51446 132.39958 9229 ft 278 kts 24°
2026-04-22 08:25 43.53114 132.41260 10055 ft 282 kts 22°
2026-04-22 08:26 43.54871 132.42610 10652 ft 296 kts 23°
2026-04-22 08:26 43.56690 132.44020 11217 ft 308 kts 23°
2026-04-22 08:26 43.58557 132.45491 11979 ft 313 kts 24°
2026-04-22 08:26 43.60448 132.46989 12795 ft 316 kts 23°
2026-04-22 08:27 43.62357 132.48509 13559 ft 320 kts 24°
2026-04-22 08:27 43.64280 132.50047 14319 ft 323 kts 23°
2026-04-22 08:27 43.66242 132.51616 15027 ft 327 kts 23°
2026-04-22 08:27 43.68201 132.53185 15701 ft 332 kts 23°
2026-04-22 08:28 43.70202 132.54785 16371 ft 335 kts 22°
2026-04-22 08:28 43.72226 132.56410 17040 ft 339 kts 22°
2026-04-22 08:28 43.74267 132.58048 17687 ft 342 kts 22°
2026-04-22 08:28 43.76318 132.59691 18320 ft 346 kts 21°
2026-04-22 08:29 43.78399 132.61362 18936 ft 350 kts 22°
2026-04-22 08:29 43.80460 132.63205 19535 ft 357 kts 26°
2026-04-22 08:29 43.82465 132.65335 20096 ft 366 kts 32°
2026-04-22 08:29 43.84381 132.67648 20635 ft 372 kts 33°
2026-04-22 08:30 43.86330 132.70070 21202 ft 377 kts 33°
2026-04-22 08:30 43.88278 132.72499 21757 ft 380 kts 33°
2026-04-22 08:30 43.90229 132.74928 22264 ft 383 kts 33°
2026-04-22 08:30 43.92220 132.77400 22731 ft 387 kts 33°
2026-04-22 08:31 43.94230 132.79884 23241 ft 391 kts 33°
2026-04-22 08:31 43.96285 132.82426 23741 ft 394 kts 33°
2026-04-22 08:31 44.00403 132.87526 24643 ft 402 kts 33°
2026-04-22 08:32 44.02481 132.90102 25045 ft 406 kts 33°
2026-04-22 08:32 44.04589 132.92723 25437 ft 409 kts 33°
2026-04-22 08:32 44.06701 132.95352 25843 ft 412 kts 33°
2026-04-22 08:32 44.08849 132.98024 26213 ft 415 kts 32°
2026-04-22 08:33 44.10997 133.00696 26595 ft 418 kts 32°
2026-04-22 08:33 44.13170 133.03392 26951 ft 421 kts 32°
2026-04-22 08:33 44.15362 133.06116 27301 ft 424 kts 33°
2026-04-22 08:33 44.17565 133.08862 27655 ft 427 kts 33°
2026-04-22 08:34 44.19786 133.11580 27982 ft 428 kts 30°
2026-04-22 08:34 44.22124 133.14137 28299 ft 426 kts 27°
2026-04-22 08:34 44.24486 133.16576 28583 ft 429 kts 26°
2026-04-22 08:34 44.26917 133.19060 28916 ft 432 kts 26°
2026-04-22 08:35 44.29335 133.21533 29233 ft 434 kts 26°
2026-04-22 08:35 44.31771 133.24033 29521 ft 437 kts 27°
2026-04-22 08:35 44.34218 133.26553 29820 ft 440 kts 27°
2026-04-22 08:35 44.36680 133.29092 30086 ft 443 kts 27°
2026-04-22 08:36 44.39159 133.31656 30356 ft 446 kts 27°
2026-04-22 08:36 44.41633 133.34216 30623 ft 448 kts 27°
2026-04-22 08:36 44.44138 133.36815 30907 ft 448 kts 27°
2026-04-22 08:36 44.46633 133.39409 31224 ft 448 kts 27°
2026-04-22 08:37 44.49109 133.41983 31534 ft 448 kts 27°
2026-04-22 08:37 44.51611 133.44585 31842 ft 448 kts 27°
2026-04-22 08:37 44.54107 133.47185 32146 ft 447 kts 27°
2026-04-22 08:37 44.56610 133.49795 32459 ft 447 kts 28°
2026-04-22 08:38 44.59083 133.52377 32756 ft 446 kts 28°
2026-04-22 08:38 44.61548 133.54953 32999 ft 447 kts 28°
2026-04-22 08:38 44.64053 133.57575 33242 ft 447 kts 28°
2026-04-22 08:38 44.66536 133.60176 33474 ft 448 kts 28°
2026-04-22 08:39 44.69029 133.62788 33705 ft 450 kts 28°
2026-04-22 08:39 44.71536 133.65420 33932 ft 452 kts 29°
2026-04-22 08:39 44.74030 133.68054 34168 ft 453 kts 30°
2026-04-22 08:39 44.76564 133.70740 34387 ft 454 kts 30°
2026-04-22 08:40 44.79066 133.73390 34627 ft 454 kts 30°
2026-04-22 08:40 44.81585 133.76054 34783 ft 456 kts 30°
2026-04-22 08:40 44.84125 133.78740 34790 ft 457 kts 30°
2026-04-22 08:41 44.89197 133.84109 34791 ft 456 kts 30°
2026-04-22 08:41 44.94286 133.89400 34794 ft 455 kts 28°
2026-04-22 08:42 44.99436 133.94485 34789 ft 454 kts 28°
2026-04-22 08:42 45.04569 133.99573 34789 ft 453 kts 28°
2026-04-22 08:43 45.09736 134.04724 34789 ft 453 kts 28°
2026-04-22 08:43 45.14835 134.09807 34785 ft 453 kts 28°
2026-04-22 08:44 45.19994 134.14967 34784 ft 453 kts 29°
2026-04-22 08:44 45.25106 134.20106 34785 ft 453 kts 29°
2026-04-22 08:45 45.30240 134.25287 34790 ft 452 kts 29°
2026-04-22 08:45 45.35335 134.30435 34791 ft 451 kts 29°
2026-04-22 08:46 45.40445 134.35616 34792 ft 451 kts 29°
2026-04-22 08:46 45.45531 134.40779 34793 ft 451 kts 29°
2026-04-22 08:47 45.50596 134.45935 34795 ft 451 kts 29°
2026-04-22 08:47 45.55709 134.51149 34794 ft 450 kts 29°
2026-04-22 08:48 45.60751 134.56308 34789 ft 450 kts 30°
2026-04-22 08:48 45.65850 134.61536 34780 ft 450 kts 30°
2026-04-22 08:49 45.70916 134.66750 34776 ft 450 kts 31°
2026-04-22 08:49 45.75951 134.71970 34776 ft 449 kts 31°
2026-04-22 08:50 45.81023 134.77214 34774 ft 449 kts 31°
2026-04-22 08:50 45.86193 134.82124 34769 ft 444 kts 23°
2026-04-22 08:51 45.91773 134.85629 34766 ft 437 kts 12°
2026-04-22 08:51 45.97617 134.87585 34761 ft 432 kts
2026-04-22 08:52 46.03586 134.88448 34753 ft 431 kts 360°
2026-04-22 08:52 46.09573 134.89206 34754 ft 432 kts
2026-04-22 08:53 46.15532 134.89980 34750 ft 432 kts
2026-04-22 08:53 46.21525 134.90771 34751 ft 431 kts
2026-04-22 08:54 46.27470 134.91563 34747 ft 431 kts
2026-04-22 08:54 46.33428 134.92360 34747 ft 431 kts
2026-04-22 08:55 46.39405 134.93162 34581 ft 432 kts
2026-04-22 08:55 46.42401 134.93564 34357 ft 430 kts
2026-04-22 08:55 46.45358 134.93964 34124 ft 428 kts
2026-04-22 08:55 46.48313 134.94362 33810 ft 425 kts
2026-04-22 08:56 46.51262 134.94763 33447 ft 422 kts
2026-04-22 08:56 46.54164 134.95155 33081 ft 421 kts
2026-04-22 08:56 46.57068 134.95549 32627 ft 422 kts
2026-04-22 08:56 46.59987 134.95943 32104 ft 424 kts
2026-04-22 08:57 46.62945 134.96344 31560 ft 426 kts
2026-04-22 08:57 46.65897 134.96742 31068 ft 426 kts
2026-04-22 08:57 46.68801 134.97139 30690 ft 423 kts
2026-04-22 08:57 46.71717 134.97537 30260 ft 421 kts
2026-04-22 08:58 46.74659 134.97937 29722 ft 421 kts
2026-04-22 08:58 46.77536 134.98331 29244 ft 419 kts
2026-04-22 08:58 46.80423 134.98613 28762 ft 415 kts 358°
2026-04-22 08:58 46.83323 134.98633 28273 ft 411 kts 354°
2026-04-22 08:59 46.86132 134.98402 27841 ft 405 kts 352°
2026-04-22 08:59 46.88934 134.98071 27434 ft 400 kts 351°
2026-04-22 08:59 46.91650 134.97733 27037 ft 395 kts 351°
2026-04-22 08:59 46.94355 134.97395 26648 ft 390 kts 351°
2026-04-22 09:00 46.97031 134.97061 26255 ft 385 kts 351°
2026-04-22 09:00 46.99690 134.96732 25824 ft 380 kts 351°
2026-04-22 09:00 47.02292 134.96408 25387 ft 376 kts 351°
2026-04-22 09:00 47.04890 134.96086 24967 ft 371 kts 351°
2026-04-22 09:01 47.07424 134.95772 24533 ft 367 kts 351°
2026-04-22 09:01 47.09960 134.95456 24106 ft 362 kts 351°
2026-04-22 09:01 47.12452 134.95146 23689 ft 358 kts 351°
2026-04-22 09:01 47.14906 134.94846 23275 ft 354 kts 351°
2026-04-22 09:02 47.17333 134.94547 22876 ft 350 kts 351°
2026-04-22 09:02 47.19731 134.94252 22491 ft 346 kts 351°
2026-04-22 09:02 47.22111 134.93957 22097 ft 343 kts 351°
2026-04-22 09:02 47.24490 134.93661 21697 ft 340 kts 351°
2026-04-22 09:03 47.26842 134.93368 21293 ft 338 kts 351°
2026-04-22 09:03 47.29154 134.93080 20893 ft 336 kts 351°
2026-04-22 09:03 47.31482 134.92790 20504 ft 334 kts 351°
2026-04-22 09:03 47.33762 134.92506 20133 ft 331 kts 352°
2026-04-22 09:04 47.36058 134.92218 19757 ft 329 kts 352°
2026-04-22 09:04 47.38316 134.91936 19392 ft 327 kts 352°
2026-04-22 09:04 47.40575 134.91653 19029 ft 324 kts 352°
2026-04-22 09:04 47.42827 134.91371 18665 ft 322 kts 352°
2026-04-22 09:05 47.45043 134.91093 18304 ft 321 kts 352°
2026-04-22 09:05 47.47236 134.90819 17945 ft 319 kts 352°
2026-04-22 09:05 47.49440 134.90543 17583 ft 317 kts 352°
2026-04-22 09:05 47.51643 134.90266 17217 ft 316 kts 352°
2026-04-22 09:06 47.53809 134.89992 16863 ft 314 kts 352°
2026-04-22 09:06 47.55994 134.89717 16492 ft 313 kts 352°
2026-04-22 09:06 47.58147 134.89447 16106 ft 312 kts 352°
2026-04-22 09:06 47.60298 134.89175 15719 ft 312 kts 353°
2026-04-22 09:07 47.62445 134.88904 15354 ft 310 kts 353°
2026-04-22 09:07 47.64584 134.88635 14999 ft 309 kts 353°
2026-04-22 09:07 47.66716 134.88365 14644 ft 307 kts 353°
2026-04-22 09:07 47.68830 134.88097 14298 ft 305 kts 353°
2026-04-22 09:08 47.70933 134.87831 13953 ft 303 kts 353°
2026-04-22 09:08 47.73038 134.87564 13609 ft 301 kts 353°
2026-04-22 09:08 47.75119 134.87303 13261 ft 299 kts 353°
2026-04-22 09:08 47.77169 134.87044 12917 ft 297 kts 353°
2026-04-22 09:09 47.79223 134.86784 12575 ft 295 kts 353°
2026-04-22 09:09 47.81258 134.86525 12227 ft 293 kts 354°
2026-04-22 09:09 47.83276 134.86269 11883 ft 291 kts 353°
2026-04-22 09:09 47.85268 134.86015 11551 ft 289 kts 354°
2026-04-22 09:10 47.87259 134.85761 11219 ft 287 kts 354°
2026-04-22 09:10 47.89255 134.85506 10885 ft 284 kts 354°
2026-04-22 09:10 47.91214 134.85254 10552 ft 282 kts 354°
2026-04-22 09:10 47.93151 134.85007 10221 ft 280 kts 354°
2026-04-22 09:11 47.95070 134.84760 9899 ft 277 kts 354°
2026-04-22 09:11 47.96986 134.84514 9732 ft 269 kts 354°
2026-04-22 09:11 47.98812 134.84282 9641 ft 262 kts 354°
2026-04-22 09:11 48.00618 134.84052 9311 ft 261 kts 354°
2026-04-22 09:12 48.02420 134.83821 8998 ft 259 kts 354°
2026-04-22 09:12 48.04187 134.83594 8694 ft 256 kts 354°
2026-04-22 09:12 48.05949 134.83369 8399 ft 253 kts 354°
2026-04-22 09:12 48.07701 134.83145 8102 ft 251 kts 354°
2026-04-22 09:13 48.09443 134.82924 7810 ft 249 kts 355°
2026-04-22 09:13 48.11162 134.82703 7532 ft 247 kts 354°
2026-04-22 09:13 48.12852 134.82487 7254 ft 246 kts 355°
2026-04-22 09:13 48.14562 134.82268 6972 ft 245 kts 354°
2026-04-22 09:14 48.16239 134.82048 6740 ft 240 kts 354°
2026-04-22 09:14 48.17860 134.81842 6705 ft 227 kts 355°
2026-04-22 09:14 48.19394 134.81647 6698 ft 213 kts 355°
2026-04-22 09:14 48.20861 134.81459 6701 ft 212 kts 356°
2026-04-22 09:15 48.22312 134.81686 6654 ft 215 kts 17°
2026-04-22 09:15 48.23695 134.82591 6339 ft 216 kts 25°
2026-04-22 09:15 48.25025 134.83620 6061 ft 215 kts 26°
2026-04-22 09:15 48.26348 134.84648 5796 ft 214 kts 26°
2026-04-22 09:16 48.27675 134.85669 5565 ft 211 kts 26°
2026-04-22 09:16 48.28973 134.86659 5345 ft 210 kts 27°
2026-04-22 09:16 48.30165 134.87923 5097 ft 210 kts 40°
2026-04-22 09:16 48.31237 134.89427 4852 ft 210 kts 43°
2026-04-22 09:17 48.32278 134.90930 4766 ft 209 kts 42°
2026-04-22 09:17 48.33332 134.92436 4640 ft 210 kts 42°
2026-04-22 09:17 48.34411 134.93953 4386 ft 210 kts 41°
2026-04-22 09:17 48.35479 134.95435 4124 ft 208 kts 41°
2026-04-22 09:18 48.36533 134.96884 3865 ft 207 kts 41°
2026-04-22 09:18 48.37604 134.98351 3605 ft 206 kts 41°
2026-04-22 09:18 48.38660 134.99793 3350 ft 205 kts 41°
2026-04-22 09:18 48.39697 135.01205 3087 ft 195 kts 41°
2026-04-22 09:19 48.40665 135.02528 2851 ft 184 kts 41°
2026-04-22 09:19 48.41576 135.03770 2690 ft 169 kts 41°
2026-04-22 09:19 48.42410 135.04910 2464 ft 159 kts 41°
2026-04-22 09:19 48.43203 135.05992 2248 ft 148 kts 41°
2026-04-22 09:20 48.43941 135.06999 2087 ft 138 kts 41°
2026-04-22 09:20 48.44622 135.07932 1870 ft 128 kts 42°
2026-04-22 09:20 48.45277 135.08829 1696 ft 127 kts 42°
2026-04-22 09:20 48.45919 135.09737 1535 ft 127 kts 43°
2026-04-22 09:21 48.46558 135.10651 1393 ft 126 kts 42°
2026-04-22 09:21 48.47205 135.11543 1241 ft 126 kts 41°
2026-04-22 09:21 48.47867 135.12407 1084 ft 126 kts 40°
2026-04-22 09:21 48.48525 135.13268 941 ft 126 kts 41°
2026-04-22 09:22 48.49178 135.14162 793 ft 125 kts 41°
2026-04-22 09:22 48.49818 135.15030 646 ft 125 kts 41°
2026-04-22 09:22 48.50468 135.15916 493 ft 125 kts 41°
2026-04-22 09:22 48.51111 135.16791 353 ft 125 kts 41°
2026-04-22 09:23 48.51755 135.17665 245 ft 117 kts 41°
2026-04-22 09:23 48.52248 135.18339 241 ft 71 kts 43°
2026-04-22 09:23 48.52513 135.18703 241 ft 42 kts 41°
2026-04-22 09:23 48.52721 135.18983 244 ft 37 kts 42°
2026-04-22 09:24 48.52900 135.19229 246 ft 28 kts 41°
2026-04-22 09:24 48.53001 135.19290 248 ft 11 kts 263°
2026-04-22 09:24 48.52984 135.19180 247 ft 11 kts 262°
2026-04-22 09:24 48.52971 135.19063 249 ft 11 kts 258°
2026-04-22 09:25 48.52954 135.18948 251 ft 10 kts 255°
2026-04-22 09:25 48.52935 135.18840 252 ft 11 kts 255°
2026-04-22 09:25 48.52935 135.18724 253 ft 10 kts 313°
2026-04-22 09:25 48.52979 135.18655 257 ft 7 kts 314°
2026-04-22 09:26 48.53011 135.18604 259 ft 6 kts 312°
2026-04-22 09:26 48.53052 135.18503 262 ft 6 kts 258°
2026-04-22 09:26 48.53006 135.18414 262 ft 10 kts 220°
2026-04-22 09:26 48.52783 135.18097 260 ft 14 kts 244°
2026-04-22 09:27 48.52819 135.17975 265 ft 12 kts 312°
2026-04-22 09:27 48.52915 135.17746 270 ft 10 kts 243°
2026-04-22 09:27 48.52739 135.17508 271 ft 10 kts 204°
2026-04-22 09:27 48.52592 135.17491 270 ft 11 kts 204°
2026-04-22 09:28 48.52530 135.17407 271 ft 12 kts 221°
2026-04-22 09:28 48.52488 135.17311 271 ft 11 kts 279°
2026-04-22 09:28 48.52526 135.17230 270 ft 0 kts 313°